Weather History for The Dalles, OR

Change the Weather History Date:

Tuesday, February 11, 2014

  Actual Average Record
Temperature  
Mean Temperature 31 °F -  
Max Temperature 37 °F 46 °F 62 °F (1971)
Min Temperature 25 °F 33 °F 19 °F (1981)
Degree Days  
Heating Degree Days 34    
Moisture  
Dew Point 31 °F    
Average Humidity 93    
Maximum Humidity 100    
Minimum Humidity 85    
Precipitation  
Precipitation 0.17 in - - ()
Sea Level Pressure  
Sea Level Pressure 30.07 in    
Wind  
Wind Speed 1 mph (SE)    
Max Wind Speed 7 mph    
Max Gust Speed -    
Visibility 4 miles    
Events Rain    
Averages and records for this station are not official NWS values.
T = Trace of Precipitation, MM = Missing Value Source: NWS Daily Summary

Daily Weather History Graph

Daily Weather History Graph

Search for Another Location

Airport:

Trip Planner

Search our weather history database for the weather conditions in past years. The results will help you decide how hot, cold, wet, or windy it might be!

Date:

Astronomy

Feb. 11, 2014 Rise Set
Actual Time 7:12 AM PST 5:25 PM PST
Civil Twilight 6:41 AM PST 5:56 PM PST
Nautical Twilight 6:06 AM PST 6:31 PM PST
Astronomical Twilight 5:32 AM PST 7:06 PM PST
Moon 2:47 PM PST (2/11) 4:57 AM PST (2/11)
Length of Visible Light 11h 15m
Length of Day
10h 13m
Waxing Gibbous, 91% of the Moon is Illuminated
Feb 11
Waxing Gibbous
Feb 14
Full
Feb 22
Last Quarter
Mar 1
New
Mar 8
First Quarter

Hourly Weather History & Observations

Time (PST) Temp. Windchill Dew Point Humidity Pressure Visibility Wind Dir Wind Speed Gust Speed Precip Events Conditions
12:53 AM 27.0 °F - 23.0 °F 85% 30.14 in 7.0 mi Calm Calm - N/A   Scattered Clouds
1:53 AM 27.0 °F - 24.1 °F 89% 30.15 in 7.0 mi Calm Calm - 0.00 in   Overcast
2:53 AM 25.0 °F - 23.0 °F 92% 30.14 in 6.0 mi Calm Calm - N/A   Clear
3:53 AM 28.9 °F 25.2 °F 27.0 °F 92% 30.15 in 7.0 mi West 3.5 mph - 0.01 in   Overcast
4:53 AM 30.0 °F - 27.0 °F 88% 30.16 in 5.0 mi Calm Calm - 0.01 in   Overcast
5:08 AM 30.0 °F - 27.0 °F 88% 30.15 in 5.0 mi Calm Calm - 0.01 in Rain Light Freezing Rain
5:30 AM 30.9 °F - 28.0 °F 89% 30.15 in 6.0 mi Calm Calm - 0.01 in   Overcast
5:53 AM 30.9 °F - 28.0 °F 89% 30.17 in 7.0 mi Calm Calm - 0.01 in   Overcast
6:53 AM 30.0 °F - 28.0 °F 92% 30.17 in 7.0 mi Calm Calm - N/A   Mostly Cloudy
7:39 AM 28.9 °F - 27.0 °F 92% 30.17 in 2.5 mi Calm Calm - N/A   Clear
7:48 AM 28.4 °F - 26.6 °F 93% 30.17 in 3.0 mi Calm Calm - N/A   Clear
7:53 AM 28.9 °F - 28.0 °F 96% 30.17 in 3.0 mi Calm Calm - N/A   Partly Cloudy
8:12 AM 26.1 °F 21.9 °F 25.0 °F 96% 30.16 in 2.0 mi WNW 3.5 mph - N/A   Mostly Cloudy
8:53 AM 30.9 °F - 28.9 °F 92% 30.17 in 2.0 mi Calm Calm - N/A   Overcast
9:30 AM 33.1 °F - 30.9 °F 92% 30.16 in 3.0 mi Calm Calm - N/A   Overcast
9:53 AM 34.0 °F - 30.9 °F 89% 30.19 in 4.0 mi Calm Calm - N/A   Overcast
10:53 AM 34.0 °F - 32.0 °F 92% 30.19 in 4.0 mi Calm Calm - N/A   Overcast
11:53 AM 35.1 °F - 33.1 °F 92% 30.17 in 5.0 mi Calm Calm - N/A   Overcast
12:53 PM 36.0 °F - 33.1 °F 89% 30.15 in 5.0 mi Calm Calm - 0.00 in   Overcast
1:53 PM 35.1 °F 30.1 °F 33.1 °F 92% 30.12 in 7.0 mi ESE 5.8 mph - 0.00 in   Overcast
2:53 PM 36.0 °F 30.3 °F 33.1 °F 89% 30.11 in 9.0 mi SSE 6.9 mph - N/A   Overcast
3:53 PM 37.0 °F - 34.0 °F 89% 30.09 in 6.0 mi Calm Calm - N/A   Overcast
4:53 PM 35.1 °F 32.2 °F 33.1 °F 92% 30.07 in 6.0 mi East 3.5 mph - 0.00 in   Overcast
5:53 PM 35.1 °F - 34.0 °F 96% 30.05 in 7.0 mi Calm Calm - N/A   Overcast
6:53 PM 34.0 °F 31.0 °F 33.1 °F 96% 30.03 in 3.0 mi South 3.5 mph - N/A   Overcast
7:53 PM 35.1 °F - 34.0 °F 96% 30.00 in 4.0 mi Calm Calm - 0.01 in   Overcast
8:22 PM 35.1 °F - 33.1 °F 92% 29.97 in 2.5 mi Calm Calm - 0.01 in Rain Light Rain
8:53 PM 35.1 °F - 34.0 °F 96% 29.97 in 2.0 mi Calm Calm - 0.04 in Rain Light Rain
9:53 PM 35.1 °F - 33.1 °F 92% 29.92 in 1.2 mi Calm Calm - 0.04 in Rain Light Rain
10:18 PM 34.0 °F - 33.1 °F 96% 29.91 in 0.8 mi Calm Calm - 0.01 in Rain Light Rain
10:39 PM 35.1 °F 32.2 °F 34.0 °F 96% 29.89 in 1.5 mi East 3.5 mph - 0.02 in Rain Light Rain
10:53 PM 34.0 °F 29.8 °F 34.0 °F 100% 29.88 in 2.0 mi SE 4.6 mph - 0.03 in Rain Light Rain
11:10 PM 34.0 °F 29.8 °F 34.0 °F 100% 29.86 in 1.2 mi SE 4.6 mph - 0.00 in   Overcast
11:19 PM 35.1 °F 32.2 °F 34.0 °F 96% 29.86 in 2.0 mi East 3.5 mph - 0.01 in Rain Light Rain
11:34 PM 34.0 °F - 34.0 °F 100% 29.85 in 3.0 mi Calm Calm - 0.01 in Rain Light Rain
11:53 PM 34.0 °F 31.0 °F 33.1 °F 96% 29.85 in 1.2 mi NW 3.5 mph - 0.02 in Rain Light Rain